Regional Weather Roundup
Issued by NWS Charleston, SC

Current Version | Previous Version | Graphics & Text | Print | Product List | Glossary On
Versions: 1 2 3 4 5 6 7 8 9 10 11 12 13 14 15 16 17 18 19 20 21 22 23 24 25 26 27 28 29 30 31 32 33 34 35 36 37 38 39 40 41 42 43 44 45 46 47 48 49 50
000
ASUS42 KCHS 201927
RWRCHS

REGIONAL WEATHER ROUNDUP
NATIONAL WEATHER SERVICE CHARLESTON SC
200 PM EST FRI JAN 20 2017

NOTE: "FAIR" INDICATES FEW OR NO CLOUDS BELOW 12,000 FEET WITH NO
SIGNIFICANT WEATHER AND/OR OBSTRUCTIONS TO VISIBILITY.

NOT ALL STATIONS ARE QUALITY CONTROLLED. USE DATA WITH CAUTION...
ESPECIALLY DEWPOINT OBSERVATIONS.

SCZ027-030-031-034>040-042>050-202000-
...SOUTHEAST SOUTH CAROLINA...

CITY           SKY/WX    TMP DP  RH WIND       PRES   REMARKS
N CHARLESTON   MOSUNNY   75  58  55 W17G24    29.85F
WATERFRONT PRK   N/A     70  64  81 SW6       29.83F
MOUNT PLEASANT MOCLDY    75  63  64 W9G16     29.85S
JOHNS ISLAND   FAIR      73  63  68 W12G21    29.86S
PINOPOLIS        N/A     66  61  82 W7        29.78F
MONCKS CORNER  MOCLDY    73  59  60 SW8       29.84F
SUMMERVILLE    CLOUDY    73  63  68 SW5       29.86F
BEAUFORT MCAS  CLOUDY    72  61  68 W8        29.87F
BEAUFORT ARPT  FAIR      72  61  68 NW8       29.86F
HILTON HEAD IS MOSUNNY   77  63  61 NW9       29.88F
WALTERBORO     MOCLDY    72  61  68 W9        29.86F
ALLENDALE      MOCLDY    72  61  68 VRB5      29.84F

...SOUTHERN MIDLANDS AND PEE DEE...

CITY           SKY/WX    TMP DP  RH WIND       PRES   REMARKS
GEORGETOWN     MOCLDY    73  61  64 W9G17     29.85S
KINGSTREE      MOCLDY    73  57  56 W8        29.83F
ORANGEBURG     MOSUNNY   73  59  61 W8        29.84F
BARNWELL       MOCLDY    75  61  60 SW9       29.84F
AIKEN          FAIR      72  55  56 W9        29.85F
MANNING        CLOUDY    72  57  60 W5        29.83F
COLUMBIA       PTSUNNY   78  57  48 W14G22    29.82F
SUMTER         PTSUNNY   74  58  58 W12       29.80F
FLORENCE       PTSUNNY   73  59  61 SW7       29.83F
MYRTLE BEACH   PTSUNNY   70  59  68 S12       29.86F
N MYRTLE BEACH MOSUNNY   66  60  81 SW10      29.84F

$$

GAZ063-065-086>088-099>101-113>116-118-119-134>141-150-202000-
...SOUTHEAST GEORGIA...

CITY           SKY/WX    TMP DP  RH WIND       PRES   REMARKS
SAVANNAH ARPT  PTSUNNY   76  61  59 NW10      29.87F
HUNTER AAF     PTSUNNY   77  66  69 W12       29.84F
FORT STEWART   NOT AVBL
STATESBORO     CLOUDY    75  63  67 W5        29.86F
SYLVANIA       MOCLDY   N/A N/A N/A W6        29.87S
CLAXTON        MOCLDY    76  76 100 SW7       29.87F

...CSRA...CENTRAL AND FAR SOUTHEAST GEORGIA...

CITY           SKY/WX    TMP DP  RH WIND       PRES   REMARKS
THOMSON        MOSUNNY   77  58  50 W17G25    29.87F
AUGUSTA-BUSH   MOSUNNY   79  57  46 SW14G21   29.82F
AUGUSTA-DANIEL MOSUNNY   74  55  51 W5        29.83F
SWAINSBORO     FAIR      73  59  60 W15       29.88S
VIDALIA        CLOUDY    73  64  73 W7        29.87F
EASTMAN        CLOUDY    73  54  51 W5        29.90F
HAZLEHURST     CLOUDY    74  64  71 CALM      29.87F
ALMA           MOSUNNY   74  63  68 W8        29.88F
WAYCROSS       PTSUNNY   82  67  60 W9        29.87F
JESUP          MOCLDY    79  61  53 W6        29.87F
BAXLEY         PTSUNNY   75  66  73 W8        29.87F
BRUNSWICK      MOSUNNY   79  66  65 W8        29.88S
SAINT SIMONS   SUNNY     77  62  59 W12       29.87F

$$

SCZ027-028-034-036>038-045-046-048>050-GAZ119-141-202000-
...LAKE AND SUPPLEMENTAL COASTAL OBSERVATIONS...

STATION/POSITION TIME  TEMP    WIND        PRES    WAVE   SWELL
                       AIR SEA DIR/SP/G            HT/PER HT/PER/DIR
                 (UTC) (F)     (DEG/KT/KT) (MB)    (FT/S) (FT/S/D)
WINYAH BAY       1845   73     210/  9     1010.0F
LAKE MURRAY      1850   69     220/  6/ 11 1009.5F
ACE BASIN NERRS  1845   71     260/  5     1012.0S
FORT PULASKI     1900   69 58  290/  6/  7 1011.6
SAPELO ISLAND    1900   75     290/  6     1011.0

$$

ANZ835-935-AMZ111-154-330-350-352-354-370-450-454-472-202000-
...C-MAN AND BUOY OBSERVATIONS...

STATION/POSITION TIME  TEMP    WIND        PRES    WAVE   SWELL
                       AIR SEA DIR/SP/G            HT/PER HT/PER/DIR
                 (UTC) (F)     (DEG/KT/KT) (MB)    (FT/S) (FT/S/D)
BUOY 41004       1850   71 71  230/ 17/ 19 1010.8F   3/ 4   2/ 90/ 8
BUOY 41008       1850   63 60  200/  6/  8 1011.4F   2/ 9   2/ 70/ 9
FOLLY BEACH CMAN 1900   62     220/ 14/ 16 1011.9F
CAPERS NEARSHORE 1908   60 56  220/ 14/ 16 1010.8F
FRIPP NEARSHORE  1908   61 58  220/  8/ 10 1011.2F


STATION/POSITION TIME  TEMP    WIND        PRES    WAVE   SWELL
                       AIR SEA DIR/SP/G            HT/PER HT/PER/DIR
                 (UTC) (F)     (DEG/KT/KT) (MB)    (FT/S) (FT/S/D)
5E ST. MARYS GA  1900      65                N/A     2/ 9
FRYING PAN BUOY  1910   71 71  220/ 10/ 14 1010.6
BUOY 41025       1850   70 76  180/ 16/ 19 1010.6F   5/12   5/ 60/12
CAPE LOOKOUT NC  1900   68     190/  7/  8 1009.7F
BUOY 41002       1850   71 71  160/ 14/ 16 1012.7F   6/11   5/360/11
BUOY 41010       NOT AVBL
ST AUGUSTINE FL  1900   80 63  250/ 11/ 17 1012.5F


$$



USA.gov is the U.S. government's official web portal to all federal, state and local government web resources and services.